| time (UTC) | temp F | wind direction | speed MPH | gust MPH | rain 1hr in | rain 24hr in | rain mn in | humidity % | barometer mb |
| 20260506175401 | 54 | 33 | 0.0 | 0.0 | 0.00 | 0.00 | 0.00 | 63 | 1014.1 |
| 20260506174842 | 55 | 33 | 0.0 | 2.0 | 0.00 | 0.00 | 0.00 | 61 | 1013.9 |
| 20260506173358 | 55 | 38 | 0.0 | 2.0 | 0.00 | 0.00 | 0.00 | 62 | 1013.8 |
| 20260506172357 | 55 | 9 | 0.0 | 3.0 | 0.00 | 0.00 | 0.00 | 62 | 1013.9 |
| 20260506171356 | 56 | 70 | 0.0 | 3.0 | 0.00 | 0.00 | 0.00 | 57 | 1013.7 |
| 20260506170356 | 55 | 50 | 0.0 | 1.0 | 0.00 | 0.00 | 0.00 | 59 | 1013.8 |
| 20260506165356 | 55 | 81 | 0.0 | 0.0 | 0.00 | 0.00 | 0.00 | 59 | 1013.7 |
| 20260506164356 | 55 | 81 | 0.0 | 3.0 | 0.00 | 0.00 | 0.00 | 60 | 1013.7 |
| 20260506163354 | 55 | 55 | 0.0 | 3.0 | 0.00 | 0.00 | 0.00 | 60 | 1013.8 |
| 20260506162904 | 55 | 13 | 0.0 | 2.0 | 0.00 | 0.00 | 0.00 | 59 | 1013.8 |
| 20260506161354 | 56 | 13 | 1.0 | 3.0 | 0.00 | 0.00 | 0.00 | 58 | 1013.8 |
| 20260506160354 | 56 | 355 | 0.0 | 2.0 | 0.00 | 0.00 | 0.00 | 57 | 1013.8 |
| 20260506155353 | 57 | 33 | 0.0 | 2.0 | 0.00 | 0.00 | 0.00 | 56 | 1013.8 |
| 20260506154352 | 57 | 57 | 1.0 | 3.0 | 0.00 | 0.00 | 0.00 | 56 | 1013.9 |
| 20260506153354 | 57 | 342 | 1.0 | 3.0 | 0.00 | 0.00 | 0.00 | 55 | 1013.9 |
| 20260506152349 | 58 | 20 | 1.0 | 3.0 | 0.00 | 0.00 | 0.00 | 54 | 1013.9 |
| 20260506151350 | 59 | 24 | 1.0 | 3.0 | 0.00 | 0.00 | 0.00 | 52 | 1013.8 |
| 20260506150348 | 59 | 350 | 1.0 | 2.0 | 0.00 | 0.00 | 0.00 | 50 | 1013.8 |
| 20260506145347 | 59 | 53 | 0.0 | 3.0 | 0.00 | 0.00 | 0.00 | 50 | 1013.8 |
| 20260506144347 | 59 | 329 | 1.0 | 3.0 | 0.00 | 0.00 | 0.00 | 48 | 1013.9 |
| 20260506143345 | 58 | 343 | 0.0 | 1.0 | 0.00 | 0.00 | 0.00 | 50 | 1013.8 |
| 20260506142345 | 58 | 351 | 1.0 | 4.0 | 0.00 | 0.00 | 0.00 | 49 | 1013.8 |
| 20260506141344 | 59 | 348 | 1.0 | 5.0 | 0.00 | 0.00 | 0.00 | 52 | 1013.8 |
| 20260506140344 | 59 | 5 | 1.0 | 3.0 | 0.00 | 0.00 | 0.00 | 49 | 1013.9 |
| 20260506135345 | 61 | 22 | 0.0 | 3.0 | 0.00 | 0.00 | 0.00 | 48 | 1013.9 |
| 20260506134342 | 61 | 329 | 1.0 | 3.0 | 0.00 | 0.00 | 0.00 | 46 | 1013.9 |
| 20260506133341 | 61 | 5 | 1.0 | 3.0 | 0.00 | 0.00 | 0.00 | 52 | 1014.0 |
| 20260506132342 | 60 | 53 | 1.0 | 2.0 | 0.00 | 0.00 | 0.00 | 49 | 1013.8 |
| 20260506131340 | 59 | 346 | 1.0 | 3.0 | 0.00 | 0.00 | 0.00 | 52 | 1013.9 |
| 20260506130341 | 59 | 247 | 1.0 | 3.0 | 0.00 | 0.00 | 0.00 | 54 | 1014.1 |
| 20260506125340 | 59 | 16 | 1.0 | 3.0 | 0.00 | 0.00 | 0.00 | 54 | 1014.1 |
| 20260506124340 | 59 | 245 | 1.0 | 4.0 | 0.00 | 0.00 | 0.00 | 52 | 1014.1 |
| 20260506123341 | 59 | 50 | 1.0 | 5.0 | 0.00 | 0.00 | 0.00 | 55 | 1014.1 |
| 20260506122341 | 57 | 17 | 0.0 | 3.0 | 0.00 | 0.00 | 0.00 | 56 | 1014.2 |
| 20260506121340 | 57 | 5 | 1.0 | 3.0 | 0.00 | 0.00 | 0.00 | 53 | 1014.2 |
| 20260506120340 | 57 | 22 | 1.0 | 3.0 | 0.00 | 0.00 | 0.00 | 55 | 1014.2 |
| 20260506115340 | 58 | 330 | 0.0 | 3.0 | 0.00 | 0.00 | 0.00 | 57 | 1014.3 |
| 20260506114341 | 57 | 346 | 0.0 | 3.0 | 0.00 | 0.00 | 0.00 | 58 | 1014.4 |
| 20260506113822 | 57 | 51 | 1.0 | 4.0 | 0.00 | 0.00 | 0.00 | 58 | 1014.4 |
| 20260506112338 | 57 | 40 | 1.0 | 5.0 | 0.00 | 0.00 | 0.00 | 58 | 1014.5 |
| 20260506111338 | 57 | 24 | 1.0 | 8.0 | 0.00 | 0.00 | 0.00 | 58 | 1014.5 |
| 20260506110336 | 56 | 81 | 1.0 | 7.0 | 0.00 | 0.00 | 0.00 | 59 | 1014.4 |
| 20260506105336 | 56 | 11 | 1.0 | 7.0 | 0.00 | 0.00 | 0.00 | 59 | 1014.5 |
| 20260506104332 | 56 | 329 | 1.0 | 3.0 | 0.00 | 0.00 | 0.00 | 56 | 1014.5 |
| 20260506103331 | 56 | 5 | 1.0 | 3.0 | 0.00 | 0.00 | 0.00 | 56 | 1014.4 |
| 20260506102330 | 56 | 24 | 1.0 | 6.0 | 0.00 | 0.00 | 0.00 | 59 | 1014.4 |
| 20260506101330 | 55 | 350 | 1.0 | 6.0 | 0.00 | 0.00 | 0.00 | 61 | 1014.4 |
| 20260506100330 | 55 | 20 | 0.0 | 2.0 | 0.00 | 0.00 | 0.00 | 59 | 1014.4 |
| 20260506095330 | 55 | 339 | 1.0 | 3.0 | 0.00 | 0.00 | 0.00 | 63 | 1014.6 |
| 20260506094330 | 54 | 38 | 1.0 | 3.0 | 0.00 | 0.00 | 0.00 | 61 | 1014.5 |
| 20260506093330 | 53 | 11 | 1.0 | 3.0 | 0.00 | 0.00 | 0.00 | 62 | 1014.5 |
| 20260506092330 | 53 | 54 | 1.0 | 3.0 | 0.00 | 0.00 | 0.00 | 66 | 1014.5 |
| 20260506091331 | 53 | 299 | 0.0 | 4.0 | 0.00 | 0.00 | 0.00 | 65 | 1014.5 |
| 20260506090330 | 53 | 13 | 1.0 | 5.0 | 0.00 | 0.00 | 0.00 | 67 | 1014.5 |
| 20260506085343 | 52 | 69 | 0.0 | 0.0 | 0.00 | 0.00 | 0.00 | 70 | 1014.5 |
| 20260506084823 | 51 | 72 | 0.0 | 2.0 | 0.00 | 0.00 | 0.00 | 72 | 1014.5 |
| 20260506083332 | 50 | 10 | 0.0 | 2.0 | 0.00 | 0.00 | 0.00 | 73 | 1014.6 |
| 20260506082816 | 49 | 9 | 0.0 | 3.0 | 0.00 | 0.00 | 0.00 | 74 | 1014.7 |
| 20260506081330 | 49 | 26 | 1.0 | 3.0 | 0.00 | 0.00 | 0.00 | 75 | 1014.9 |
| 20260506080331 | 49 | 22 | 1.0 | 3.0 | 0.00 | 0.00 | 0.00 | 76 | 1014.6 |
| 20260506073330 | 48 | 0 | 0.0 | 2.0 | 0.00 | 0.00 | 0.00 | 79 | 1014.6 |
| 20260506072805 | 47 | 324 | 0.0 | 2.0 | 0.00 | 0.00 | 0.00 | 78 | 1014.6 |
| 20260506071324 | 47 | 355 | 0.0 | 2.0 | 0.00 | 0.00 | 0.00 | 79 | 1014.5 |
| 20260506070324 | 47 | 355 | 0.0 | 2.0 | 0.00 | 0.00 | 0.00 | 78 | 1014.3 |
| 20260506062321 | 47 | 0 | 0.0 | 2.0 | 0.00 | 0.00 | 0.00 | 80 | 1014.2 |
| 20260506061800 | 47 | 15 | 0.0 | 2.0 | 0.00 | 0.00 | 0.00 | 82 | 1014.3 |
| 20260506060320 | 46 | 45 | 0.0 | 2.0 | 0.00 | 0.00 | 0.00 | 82 | 1014.3 |
| 20260506051315 | 47 | 340 | 0.0 | 2.0 | 0.00 | 0.00 | 0.00 | 82 | 1014.0 |
| 20260506050318 | 47 | 5 | 1.0 | 2.0 | 0.00 | 0.00 | 0.00 | 82 | 1013.9 |
| 20260506044315 | 47 | 350 | 0.0 | 3.0 | 0.00 | 0.00 | 0.00 | 83 | 1013.8 |
| 20260506042754 | 47 | 35 | 0.0 | 2.0 | 0.00 | 0.00 | 0.00 | 82 | 1013.8 |
| 20260506041312 | 47 | 35 | 0.0 | 2.0 | 0.00 | 0.00 | 0.00 | 82 | 1013.9 |
| 20260506040311 | 48 | 42 | 0.0 | 2.0 | 0.00 | 0.00 | 0.00 | 83 | 1013.8 |
| 20260506035309 | 48 | 42 | 0.0 | 2.0 | 0.00 | 0.00 | 0.00 | 84 | 1013.8 |
| 20260506034310 | 48 | 345 | 0.0 | 1.0 | 0.00 | 0.00 | 0.00 | 83 | 1013.7 |
| 20260506033307 | 48 | 323 | 0.0 | 0.0 | 0.00 | 0.00 | 0.00 | 83 | 1013.7 |
| 20260506032307 | 48 | 323 | 0.0 | 0.0 | 0.00 | 0.00 | 0.00 | 83 | 1013.7 |
| 20260506031306 | 49 | 323 | 0.0 | 0.0 | 0.00 | 0.00 | 0.00 | 84 | 1013.7 |
| 20260506030304 | 49 | 323 | 0.0 | 0.0 | 0.00 | 0.00 | 0.00 | 84 | 1013.7 |
| 20260506025310 | 49 | 319 | 0.0 | 0.0 | 0.00 | 0.00 | 0.00 | 84 | 1013.6 |
| 20260506024306 | 49 | 338 | 0.0 | 0.0 | 0.00 | 0.00 | 0.00 | 83 | 1013.7 |
| 20260506023303 | 49 | 338 | 0.0 | 0.0 | 0.00 | 0.00 | 0.00 | 83 | 1013.7 |
| 20260506022754 | 49 | 341 | 0.0 | 0.0 | 0.00 | 0.00 | 0.00 | 83 | 1013.7 |
| 20260506021305 | 49 | 348 | 0.0 | 0.0 | 0.00 | 0.00 | 0.00 | 83 | 1013.8 |
| 20260506020750 | 49 | 348 | 0.0 | 0.0 | 0.00 | 0.00 | 0.00 | 83 | 1013.9 |
| 20260506015305 | 49 | 348 | 0.0 | 0.0 | 0.00 | 0.00 | 0.00 | 83 | 1013.9 |
| 20260506014259 | 49 | 348 | 0.0 | 0.0 | 0.00 | 0.00 | 0.00 | 82 | 1013.9 |
| 20260506013303 | 49 | 348 | 0.0 | 0.0 | 0.00 | 0.00 | 0.00 | 82 | 1013.8 |
| 20260506012258 | 49 | 346 | 0.0 | 0.0 | 0.00 | 0.00 | 0.00 | 82 | 1013.9 |
| 20260506011259 | 50 | 346 | 0.0 | 0.0 | 0.00 | 0.00 | 0.00 | 81 | 1013.9 |
| 20260506010258 | 50 | 346 | 0.0 | 0.0 | 0.00 | 0.00 | 0.00 | 81 | 1013.9 |
| 20260506005300 | 50 | 355 | 0.0 | 0.0 | 0.00 | 0.00 | 0.00 | 80 | 1013.9 |
| 20260506004259 | 51 | 11 | 0.0 | 2.0 | 0.00 | 0.00 | 0.00 | 78 | 1013.9 |
| 20260506003258 | 51 | 5 | 0.0 | 2.0 | 0.00 | 0.00 | 0.00 | 78 | 1014.0 |
| 20260506002258 | 51 | 355 | 0.0 | 3.0 | 0.00 | 0.00 | 0.00 | 78 | 1014.0 |
| 20260506001254 | 51 | 294 | 0.0 | 3.0 | 0.00 | 0.00 | 0.00 | 77 | 1013.9 |
| 20260506000733 | 51 | 350 | 0.0 | 3.0 | 0.00 | 0.00 | 0.00 | 78 | 1013.9 |
| 20260505235252 | 51 | 5 | 0.0 | 3.0 | 0.00 | 0.00 | 0.00 | 78 | 1014.0 |
| 20260505234252 | 52 | 355 | 1.0 | 3.0 | 0.00 | 0.00 | 0.00 | 77 | 1014.0 |
| 20260505233253 | 52 | 24 | 1.0 | 3.0 | 0.00 | 0.00 | 0.00 | 77 | 1013.9 |
| 20260505232251 | 52 | 28 | 1.0 | 4.0 | 0.00 | 0.00 | 0.00 | 77 | 1013.9 |
| 20260505231251 | 52 | 22 | 1.0 | 5.0 | 0.00 | 0.00 | 0.00 | 76 | 1013.8 |
| 20260505230724 | 53 | 355 | 1.0 | 2.0 | 0.00 | 0.00 | 0.00 | 76 | 1013.9 |
| 20260505224249 | 53 | 42 | 0.0 | 2.0 | 0.00 | 0.00 | 0.00 | 75 | 1013.8 |
| 20260505223250 | 53 | 11 | 0.0 | 2.0 | 0.00 | 0.00 | 0.00 | 75 | 1013.8 |
| 20260505222250 | 53 | 331 | 0.0 | 2.0 | 0.00 | 0.00 | 0.00 | 75 | 1013.8 |
| 20260505221249 | 53 | 12 | 0.0 | 1.0 | 0.00 | 0.00 | 0.00 | 76 | 1013.9 |
| 20260505220727 | 54 | 22 | 0.0 | 2.0 | 0.00 | 0.00 | 0.00 | 76 | 1013.8 |
| 20260505215736 | 54 | 18 | 0.0 | 2.0 | 0.00 | 0.00 | 0.00 | 75 | 1013.8 |
| 20260505214241 | 54 | 5 | 0.0 | 3.0 | 0.00 | 0.00 | 0.00 | 76 | 1013.8 |
| 20260505213241 | 54 | 355 | 0.0 | 3.0 | 0.00 | 0.00 | 0.00 | 75 | 1013.8 |
| 20260505212239 | 54 | 56 | 0.0 | 0.0 | 0.00 | 0.00 | 0.00 | 76 | 1013.8 |
| 20260505211237 | 54 | 56 | 0.0 | 0.0 | 0.00 | 0.00 | 0.00 | 76 | 1013.7 |
| 20260505210235 | 54 | 56 | 0.0 | 2.0 | 0.00 | 0.00 | 0.00 | 75 | 1013.7 |
| 20260505205232 | 54 | 56 | 0.0 | 2.0 | 0.00 | 0.00 | 0.00 | 73 | 1013.6 |
| 20260505204232 | 54 | 74 | 0.0 | 2.0 | 0.00 | 0.00 | 0.00 | 73 | 1013.6 |
| 20260505203230 | 54 | 36 | 0.0 | 2.0 | 0.00 | 0.00 | 0.00 | 74 | 1013.6 |
| 20260505202231 | 54 | 55 | 0.0 | 3.0 | 0.00 | 0.00 | 0.00 | 73 | 1013.5 |
| 20260505200230 | 55 | 315 | 0.0 | 2.0 | 0.00 | 0.00 | 0.00 | 75 | 1013.4 |
| 20260505195230 | 55 | 316 | 0.0 | 3.0 | 0.00 | 0.00 | 0.00 | 73 | 1013.3 |
| 20260505194230 | 55 | 278 | 0.0 | 3.0 | 0.00 | 0.00 | 0.00 | 74 | 1013.3 |
| 20260505193226 | 55 | 104 | 0.0 | 2.0 | 0.00 | 0.00 | 0.00 | 75 | 1013.1 |
| 20260505192709 | 56 | 32 | 0.0 | 2.0 | 0.00 | 0.00 | 0.00 | 74 | 1013.2 |
| 20260505191227 | 56 | 101 | 0.0 | 2.0 | 0.00 | 0.00 | 0.00 | 73 | 1013.1 |
| 20260505190226 | 56 | 82 | 0.0 | 2.0 | 0.00 | 0.00 | 0.00 | 72 | 1013.0 |
| 20260505185657 | 56 | 314 | 0.0 | 0.0 | 0.00 | 0.00 | 0.00 | 74 | 1012.9 |
| 20260505184222 | 56 | 336 | 0.0 | 0.0 | 0.00 | 0.00 | 0.00 | 73 | 1012.9 |
| 20260505183220 | 56 | 336 | 0.0 | 0.0 | 0.00 | 0.00 | 0.00 | 73 | 1012.9 |
| 20260505182221 | 56 | 336 | 0.0 | 1.0 | 0.00 | 0.00 | 0.00 | 72 | 1012.8 |
| 20260505181222 | 56 | 325 | 0.0 | 1.0 | 0.00 | 0.00 | 0.00 | 72 | 1012.8 |
| 20260505180220 | 56 | 309 | 0.0 | 2.0 | 0.00 | 0.00 | 0.00 | 72 | 1012.9 |